Weather reports worldwide

Advertisment
Nottingham/Watnall, United Kingdom (3354): temperature & dewpoint: 12.08.2017 00:00:00 - 18.08.2017 00:00:00 (BST)Nottingham/Watnall, United Kingdom (3354): temperature -20cm & temperature -100cm: 12.08.2017 00:00:00 - 18.08.2017 00:00:00 (BST)Nottingham/Watnall, United Kingdom (3354): wind speed: 12.08.2017 00:00:00 - 18.08.2017 00:00:00 (BST)Nottingham/Watnall, United Kingdom (3354): wind direction: 12.08.2017 00:00:00 - 18.08.2017 00:00:00 (BST)Nottingham/Watnall, United Kingdom (3354): reduced air pressure: 12.08.2017 00:00:00 - 18.08.2017 00:00:00 (BST)Nottingham/Watnall, United Kingdom (3354): visibility: 12.08.2017 00:00:00 - 18.08.2017 00:00:00 (BST)Nottingham/Watnall, United Kingdom (3354): sunshine duration: 12.08.2017 00:00:00 - 18.08.2017 00:00:00 (BST)Nottingham/Watnall, United Kingdom (3354): precipitation: 12.08.2017 00:00:00 - 18.08.2017 00:00:00 (BST)
Date & Time tt [°C] td [°C] tt -20cm [°C] tt -100cm [°C] ff [km/h] ff [kn] dd ppp [hPa] vv [km] sd [min] rr [mm]
18.08.2017 00:00:00 15,0 11,8 - - 8 4 SSW 1008,7 28 0 0,0
17.08.2017 23:00:00 16,3 11,8 - - 5 3 SSW 1008,7 24 0 0,0
17.08.2017 22:00:00 16,7 11,3 - - 9 5 SW 1008,8 27 0 0,0
17.08.2017 21:00:00 17,0 11,7 - - 4 2 WSW 1008,8 30 0 0,0
17.08.2017 20:00:00 19,4 11,1 - - 13 7 WSW 1008,8 30 6 0,0
17.08.2017 19:00:00 20,1 10,5 - - 15 8 SW 1008,9 40 36 0,0
17.08.2017 18:00:00 21,5 10,6 - - 18 10 SW 1008,6 30 60 0,0
17.08.2017 17:00:00 21,8 11,8 - - 18 10 W 1008,6 26 42 0,0
17.08.2017 16:00:00 20,8 12,8 - - 22 12 W 1008,7 50 30 0,0
17.08.2017 15:00:00 22,2 12,7 - - 22 12 WSW 1008,3 26 54 0,0
17.08.2017 14:00:00 21,9 14,2 - - 18 10 WSW 1008,2 40 54 0,0
17.08.2017 13:00:00 19,9 15,3 - - 15 8 W 1008,3 30 24 0,0
17.08.2017 12:00:00 19,3 16,0 - - 13 7 W 1008,1 45 12 0,0
17.08.2017 11:00:00 17,6 16,2 - - 16 9 W 1008,0 28 6 1,6
17.08.2017 10:00:00 17,6 17,0 20,9 16,5 11 6 SSW 1007,7 8 0 0,4
17.08.2017 09:00:00 16,5 16,3 - - 13 7 SSW 1007,8 5 0 1,2
17.08.2017 08:00:00 15,6 15,4 - - 9 5 SSW 1007,8 6 0 1,4
17.08.2017 07:00:00 15,2 15,1 - - 9 5 SSW 1007,8 10 0 0,4
17.08.2017 06:00:00 14,8 14,6 - - 9 5 S 1007,8 5 0 1,8
17.08.2017 05:00:00 14,4 14,1 - - 11 6 S 1008,4 8 0 5,0
17.08.2017 04:00:00 14,1 13,6 - - 8 4 SSW 1009,1 4,7 0 1,4
17.08.2017 03:00:00 14,0 13,0 - - 11 6 SSW 1010,0 26 0 0,0
17.08.2017 02:00:00 13,9 12,6 - - 13 7 SSW 1010,6 28 0 2,8
17.08.2017 01:00:00 16,2 10,6 - - 16 9 SSW 1011,1 40 - 0,0
17.08.2017 00:00:00 16,7 9,9 - - 16 9 SSW 1012,1 40 0 0,0
16.08.2017 23:00:00 16,9 9,6 - - 16 9 SSW 1012,3 45 0 0,0
16.08.2017 22:00:00 17,2 10,6 - - 11 6 S 1013,3 45 0 0,0
16.08.2017 21:00:00 17,3 11,8 - - 11 6 SSW 1013,8 30 0 0,0
16.08.2017 20:00:00 17,8 12,1 - - 15 8 SSW 1013,8 40 0 0,0
16.08.2017 19:00:00 19,6 10,7 - - 15 8 SSW 1014,4 29 6 0,0
16.08.2017 18:00:00 20,1 10,6 - - 15 8 SSW 1014,8 40 12 0,0
16.08.2017 17:00:00 20,6 9,4 - - 16 9 SSW 1015,1 35 54 0,0
16.08.2017 16:00:00 20,4 8,8 - - 18 10 SSW 1015,9 35 54 0,0
16.08.2017 15:00:00 20,9 9,4 - - 16 9 SSW 1016,4 45 60 0,0
16.08.2017 14:00:00 20,0 9,4 - - 16 9 SSW 1017,1 45 36 0,0
16.08.2017 13:00:00 18,5 10,3 - - 15 8 SSW 1017,4 18 30 0,0
16.08.2017 12:00:00 17,4 9,6 - - 15 8 SSW 1018,1 30 48 0,0
16.08.2017 11:00:00 15,7 10,7 - - 11 6 WSW 1018,9 30 30 0,0
16.08.2017 10:00:00 14,0 11,4 17,0 16,4 9 5 SW 1019,3 20 0 0,0
16.08.2017 09:00:00 12,9 10,8 - - 9 5 SSW 1019,1 14 6 0,0
16.08.2017 08:00:00 12,0 9,8 - - 5 3 SW 1019,1 30 30 0,0
16.08.2017 07:00:00 11,2 9,4 - - 4 2 SW 1019,1 22 6 0,0
16.08.2017 06:00:00 10,7 9,7 - - 8 4 WSW 1019,1 28 0 0,0
16.08.2017 05:00:00 9,3 8,2 - - 2 1 SW 1018,9 30 0 0,0
16.08.2017 04:00:00 11,2 9,1 - - 8 4 WSW 1019,1 30 0 0,0
16.08.2017 03:00:00 11,7 9,2 - - 9 5 WSW 1019,1 45 0 0,0
16.08.2017 02:00:00 12,4 9,5 - - 8 4 WNW 1018,9 40 0 0,0
16.08.2017 01:00:00 12,6 9,5 - - 8 4 W 1018,9 35 - 0,0
16.08.2017 00:00:00 13,1 9,6 - - 5 3 SW 1018,9 28 0 0,0
15.08.2017 23:00:00 13,3 9,7 - - 5 3 SW 1018,7 45 0 0,0
15.08.2017 22:00:00 14,6 10,0 - - 5 3 WNW 1017,9 35 0 0,0
15.08.2017 21:00:00 16,2 9,4 - - 5 3 WNW 1017,3 30 12 0,0
15.08.2017 20:00:00 18,4 8,8 - - 8 4 WNW 1016,5 40 60 0,0
15.08.2017 19:00:00 19,6 7,9 - - 15 8 W 1015,8 40 60 0,0
15.08.2017 18:00:00 20,3 8,8 - - 18 10 W 1015,4 45 60 0,0
15.08.2017 17:00:00 20,5 8,6 - - 21 11 W 1015,2 40 54 0,0
15.08.2017 16:00:00 20,6 8,9 - - 21 11 W 1014,7 40 54 0,0
15.08.2017 15:00:00 20,3 8,3 - - 15 8 W 1014,5 30 30 0,0
15.08.2017 14:00:00 19,9 8,4 - - 18 10 WSW 1014,3 20 36 0,0
15.08.2017 13:00:00 19,4 9,0 - - 15 8 W 1013,9 45 48 0,0
15.08.2017 12:00:00 19,1 10,2 - - 13 7 W 1013,8 50 48 0,0
15.08.2017 11:00:00 18,0 11,3 - - 16 9 WSW 1013,7 35 48 0,0
15.08.2017 10:00:00 16,6 12,1 17,2 16,4 13 7 W 1013,4 45 42 0,0
15.08.2017 09:00:00 14,7 12,3 - - 15 8 WSW 1013,1 27 0 0,0
15.08.2017 08:00:00 13,7 12,4 - - 11 6 SW 1012,7 15 0 0,0
15.08.2017 07:00:00 13,3 12,4 - - 11 6 SW 1012,1 11 0 0,0
15.08.2017 06:00:00 12,8 12,1 - - 11 6 SW 1012,0 9 0 0,0
15.08.2017 05:00:00 13,0 12,0 - - 9 5 SW 1011,6 12 0 0,0
15.08.2017 04:00:00 13,3 11,7 - - 8 4 SSW 1011,8 17 0 0,0
15.08.2017 03:00:00 14,4 12,1 - - 11 6 SSW 1012,1 35 0 0,0
15.08.2017 02:00:00 14,6 12,3 - - 9 5 SSW 1012,7 35 0 0,0
15.08.2017 01:00:00 14,9 12,8 - - 5 3 SSW 1012,6 26 - 0,0
15.08.2017 00:00:00 15,6 13,0 - - 9 5 SSW 1012,9 35 0 0,0
14.08.2017 23:00:00 16,2 13,7 - - 9 5 SSW 1013,3 25 0 0,0
14.08.2017 22:00:00 16,4 14,2 - - 13 7 S 1013,6 23 0 0,0
14.08.2017 21:00:00 17,4 13,5 - - 13 7 SSW 1013,7 29 0 0,0
14.08.2017 20:00:00 18,4 13,0 - - 8 4 S 1013,4 19 0 0,0
14.08.2017 19:00:00 18,9 12,6 - - 8 4 SSW 1013,8 30 0 0,0
14.08.2017 18:00:00 19,6 12,1 - - 13 7 SSW 1014,0 30 6 0,0
14.08.2017 17:00:00 20,5 11,8 - - 15 8 S 1014,3 28 42 0,0
14.08.2017 16:00:00 19,9 13,1 - - 11 6 SSW 1015,0 35 6 0,0
14.08.2017 15:00:00 19,7 12,0 - - 13 7 SSW 1015,3 30 48 0,0
14.08.2017 14:00:00 19,5 13,1 - - 13 7 SSW 1015,7 40 18 0,0
14.08.2017 13:00:00 16,8 11,6 - - 11 6 SSW 1016,5 25 0 0,0
14.08.2017 12:00:00 15,5 11,5 - - 9 5 SSW 1017,1 28 0 0,2
14.08.2017 11:00:00 14,5 11,3 - - 13 7 SW 1017,6 11 0 0,0
14.08.2017 10:00:00 15,0 10,7 17,0 16,4 8 4 SSW 1017,8 30 0 0,0
14.08.2017 09:00:00 14,2 9,8 - - 9 5 S 1018,0 30 0 0,0
14.08.2017 08:00:00 13,4 9,1 - - 9 5 S 1018,2 30 0 0,0
14.08.2017 07:00:00 12,5 9,4 - - 5 3 SSW 1018,1 27 0 0,0
14.08.2017 06:00:00 10,7 8,4 - - 2 1 ENE 1018,2 30 0 0,0
14.08.2017 05:00:00 10,8 8,1 - - 4 2 E 1018,2 30 0 0,0
14.08.2017 04:00:00 11,2 8,1 - - 2 1 SE 1018,7 30 0 0,0
14.08.2017 03:00:00 11,3 8,0 - - 8 4 SE 1019,1 30 0 0,0
14.08.2017 02:00:00 12,7 8,3 - - 8 4 E 1019,5 30 0 0,0
14.08.2017 01:00:00 14,2 8,0 - - 8 4 SSE 1020,0 35 - 0,0
14.08.2017 00:00:00 14,4 8,8 - - 8 4 SE 1020,2 35 0 0,0
13.08.2017 23:00:00 14,4 9,5 - - 5 3 E 1020,5 24 0 0,0
13.08.2017 22:00:00 14,4 8,7 - - 5 3 E 1020,7 30 0 0,0
13.08.2017 21:00:00 15,9 7,9 - - 5 3 SSE 1020,5 35 0 0,0
13.08.2017 20:00:00 17,4 7,5 - - 4 2 S 1020,5 35 0 0,0
13.08.2017 19:00:00 17,9 7,2 - - 4 2 S 1020,6 35 0 0,0
13.08.2017 18:00:00 18,6 6,1 - - 5 3 W 1020,7 22 24 0,0
13.08.2017 17:00:00 19,4 6,9 - - 5 3 WSW 1020,7 29 48 0,0
13.08.2017 16:00:00 18,7 6,9 - - 9 5 WSW 1021,1 30 42 0,0
13.08.2017 15:00:00 18,5 6,2 - - 8 4 WNW 1021,3 27 24 0,0
13.08.2017 14:00:00 17,6 7,2 - - 8 4 WNW 1021,3 45 12 0,0
13.08.2017 13:00:00 17,1 6,2 - - 5 3 NNW 1021,4 40 24 0,0
13.08.2017 12:00:00 16,9 5,5 - - 11 6 WNW 1021,7 40 48 0,0
13.08.2017 11:00:00 16,6 7,3 - - 15 8 NW 1021,7 20 60 0,0
13.08.2017 10:00:00 15,8 8,1 16,7 16,4 11 6 NW 1021,7 30 60 0,0
13.08.2017 09:00:00 14,2 9,8 - - 11 6 WNW 1021,5 24 60 0,0
13.08.2017 08:00:00 11,9 9,0 - - 8 4 W 1021,0 28 60 0,0
13.08.2017 07:00:00 10,1 8,4 - - 8 4 W 1020,9 25 42 0,0
13.08.2017 06:00:00 8,8 7,6 - - 9 5 W 1020,6 21 0 0,0
13.08.2017 05:00:00 10,0 7,9 - - 9 5 WNW 1020,4 30 0 0,0
13.08.2017 04:00:00 10,5 7,9 - - 9 5 WNW 1020,2 30 0 0,0
13.08.2017 03:00:00 10,6 7,7 - - 11 6 W 1019,9 25 0 0,0
13.08.2017 02:00:00 11,1 7,5 - - 9 5 W 1019,7 30 0 0,0
13.08.2017 01:00:00 11,3 8,1 - - 8 4 WNW 1019,8 30 - 0,0
13.08.2017 00:00:00 12,2 8,3 - - 8 4 WNW 1019,6 30 0 0,0
12.08.2017 23:00:00 12,5 9,0 - - 5 3 WNW 1019,1 23 0 0,0
12.08.2017 22:00:00 13,4 8,7 - - 9 5 WNW 1018,8 30 0 0,0
12.08.2017 21:00:00 14,6 8,8 - - 9 5 NW 1018,1 40 18 0,0
12.08.2017 20:00:00 16,5 8,9 - - 18 10 WNW 1017,3 45 60 0,0
12.08.2017 19:00:00 18,3 8,9 - - 16 9 WNW 1016,5 30 54 0,0
12.08.2017 18:00:00 19,0 10,6 - - 18 10 WNW 1015,9 40 54 0,0
12.08.2017 17:00:00 18,8 11,7 - - 16 9 NW 1015,4 40 6 0,0
12.08.2017 16:00:00 18,7 11,5 - - 16 9 W 1015,0 35 12 0,0
12.08.2017 15:00:00 18,9 11,6 - - 21 11 WNW 1015,0 17 24 0,0
12.08.2017 14:00:00 18,6 10,8 - - 24 13 W 1014,7 45 36 0,0
12.08.2017 13:00:00 17,6 10,0 - - 16 9 W 1014,6 35 6 0,0
12.08.2017 12:00:00 18,3 10,7 - - 13 7 WNW 1014,5 27 24 0,0
12.08.2017 11:00:00 16,6 9,0 - - 16 9 W 1014,2 35 30 0,0
12.08.2017 10:00:00 15,9 10,7 17,0 16,4 16 9 W 1013,9 40 30 0,0
12.08.2017 09:00:00 15,0 12,2 - - 11 6 W 1013,8 23 18 0,0
12.08.2017 08:00:00 14,4 12,8 - - 5 3 WSW 1013,4 30 6 0,0
12.08.2017 07:00:00 13,6 13,0 - - 4 2 SSE 1013,0 13 0 0,0
12.08.2017 06:00:00 13,3 12,5 - - 8 4 NW 1012,5 19 0 0,0
12.08.2017 05:00:00 13,0 11,9 - - 2 1 S 1012,4 10 0 0,0
12.08.2017 04:00:00 14,8 13,9 - - 8 4 W 1012,3 30 0 0,0
12.08.2017 03:00:00 15,2 14,4 - - 11 6 WSW 1012,3 25 0 0,0
12.08.2017 02:00:00 15,9 14,9 - - 15 8 WSW 1012,4 30 0 0,0
12.08.2017 01:00:00 15,8 15,2 - - 11 6 WSW 1012,7 35 - 0,0
12.08.2017 00:00:00 15,9 15,4 - - 15 8 SW 1013,1 30 0 0,6

tt = temperature
td = dewpoint
tt -20cm = temperature -20cm
tt -100cm = temperature -100cm
ff = wind speed
dd = wind direction
ppp = reduced air pressure
vv = visibility
sd = sunshine duration
rr = precipitation

Next stations